Home > Weather > Wheaton > Past weeks

Flag for USA Weather for the Past 2 Weeks in Wheaton, Illinois, USA

Now
39 °F

Clear.


Feels Like: 32 °F
Forecast: 40 / 62 °F
Wind: 12 mph from North

Location: Dupage Airport

Current Time: May 5, 2016 at 1:57:23 AM

Latest Report: May 5, 2016 at 12:52 AM


Visibility: 10 mi

Pressure: 29.90 "Hg

Humidity: 76%

Dew Point: 32 °F

Location of WheatonLocation

Historic Weather in Wheaton — Graph

°F

Wheaton Temperature Yesterday

Maximum temperature yesterday: 54 °F (at 12:52 AM)
Minimum temperature yesterday: 39 °F (at 9:52 PM)
Average temperature yesterday: 49 °F

High & Low Weather Summary for the Past Weeks

 TemperatureHumidityPressure
High82 °F (Apr 25, 2:52 PM)93% (Apr 21, 5:01 AM)30.21 "Hg (Apr 21, 5:01 AM)
Low34 °F (Apr 23, 5:52 AM)37% (Apr 25, 3:52 PM)29.57 "Hg (Apr 25, 6:52 PM)
Average52 °F71%29.93 "Hg
* Reported Apr 19 11:52 PM — May 4 11:52 PM, Wheaton, Weather by CustomWeather, © 2016

Note: Actual official high and low records may vary slightly from our data, if they occured in-between our weather recording intervals... More about our weather records

Advertising

Wheaton Weather History for the Previous 24 Hours

Scroll right to see more
 ConditionsComfort  
Time TempWeatherWind HumidityBarometerVisibility
11:52 PM
Wed, May 4
40 °FPassing clouds.9 mph77%29.90 "Hg10 mi
10:52 PM41 °FPassing clouds.10 mph76%29.89 "Hg10 mi
9:52 PM39 °FClear.8 mph79%29.89 "Hg10 mi
8:52 PM44 °FPassing clouds.9 mph71%29.87 "Hg10 mi
7:52 PM47 °FMore clouds than sun.13 mph66%29.85 "Hg10 mi
6:52 PM52 °FMostly cloudy.9 mph59%29.82 "Hg10 mi
5:52 PM53 °FMore clouds than sun.12 mph55%29.81 "Hg10 mi
4:52 PM53 °FMostly cloudy.15 mph55%29.81 "Hg10 mi
3:52 PM52 °FMore clouds than sun.13 mph57%29.80 "Hg10 mi
2:52 PM51 °FMostly cloudy.18 mph56%29.80 "Hg10 mi
1:52 PM51 °FMostly cloudy.17 mph59%29.80 "Hg10 mi
12:52 PM50 °FMostly cloudy.18 mph59%29.79 "Hg10 mi
11:52 AM49 °FMostly cloudy.18 mph61%29.79 "Hg10 mi
10:52 AM50 °FMore clouds than sun.20 mph61%29.77 "Hg10 mi
9:52 AM52 °FScattered clouds.18 mph61%29.74 "Hg10 mi
8:52 AM51 °FPassing clouds.15 mph63%29.73 "Hg10 mi
7:52 AM49 °FBroken clouds.20 mph74%29.72 "Hg10 mi
6:52 AM47 °FScattered clouds.12 mph77%29.70 "Hg10 mi
5:52 AM48 °FPassing clouds.14 mph86%29.67 "Hg10 mi
4:52 AM47 °FPassing clouds.9 mph86%29.65 "Hg10 mi
3:52 AM48 °FMostly cloudy.6 mph89%29.64 "Hg10 mi
2:52 AM49 °FRain. Fog.3 mph86%29.61 "Hg5 mi
1:52 AM50 °FRain. Fog.10 mph86%29.66 "Hg6 mi
Weather by CustomWeather, © 2016

See weather overviewHow to use our weather pages